Theta_e
309 321 321 317 318 315 311 308 306 306 305 305 304 304 304 302 301 300 300 299 299 298
311 314 311 308 307 305 304 303 303 302 301 301 300 300 299 297 297 297 296 295 295 296
304 305 305 304 302 301 301 300 299 298 297 296 295 295 295 294 293 291 292 292 291 291
300 300 300 299 299 297 296 296 294 293 292 292 291 290 288 287 287 286 286 286 286 285
297 296 295 294 294 293 292 292 291 290 288 286 285 285 285 284 284 284 283 283 283 282
293 292 290 291 290 290 289 288 286 285 284 283 283 283 283 284 283 283 283 283 283 282
290 290 289 288 287 286 285 283 283 282 282 282 283 283 283 283 283 283 282 283 282 282
286 286 285 284 283 282 282 282 282 283 282 283 283 283 282 283 283 282 282 282 282 282
284 283 282 281 281 281 281 281 282 282 282 282 284 285 286 284 282 282 282 281 280 281
281 280 280 280 279 279 279 280 280 280 282 282 283 285 284 283 281 280 279 279 279 279
279 278 278 278 278 278 279 279 279 279 281 282 283 283 282 281 280 278 278 278 278 278
278 277 277 276 277 278 278 277 278 278 278 280 281 282 281 279 277 277 276 277 277 277
276 276 275 276 276 276 277 277 277 276 276 277 277 282 281 279 276 273 275 275 275 277
274 274 275 274 276 276 276 275 274 274 274 273 275 279 281 279 276 273 272 273 272 273
Wind_Speed
6 5 5 5 3 3 3 4 4 5 5 6 6 5 5 5 3 6 4 5 4 2
2 4 4 5 5 5 7 6 7 7 7 7 8 7 7 5 5 6 5 5 4 3
3 5 6 6 8 8 8 8 8 8 8 7 7 7 6 5 5 6 5 4 6 6
4 6 7 7 7 9 8 7 8 8 8 7 7 6 7 7 6 7 6 5 6 6
6 7 8 8 9 8 9 7 8 8 9 7 7 6 7 7 6 7 7 6 7 6
6 6 7 8 8 8 10 9 9 8 8 7 6 7 6 6 7 8 7 6 6 5
6 6 7 8 8 9 8 10 9 8 8 7 7 6 6 7 7 7 6 5 5 5
7 8 8 9 9 8 9 8 8 9 8 7 7 5 6 7 7 7 6 5 5 5
8 8 8 7 8 10 9 8 9 8 8 9 7 13 13 8 6 6 6 6 5 6
8 9 7 7 8 9 9 8 9 8 9 10 8 14 13 9 6 7 6 7 7 6
9 10 8 9 9 8 7 9 8 8 9 9 8 13 11 11 7 7 7 7 7 7
10 10 9 10 9 7 9 8 8 7 7 8 7 12 11 9 6 7 7 7 8 8
8 9 9 9 9 4 8 9 8 9 6 6 4 11 12 8 4 5 5 6 7 11
7 8 8 6 6 8 9 9 8 8 5 4 5 6 11 11 5 4 4 4 4 4
Wind_Direction
248 237 211 189 159 148 118 108 97 80 75 80 75 63 71 70 61 66 65 64 60 68
245 197 137 104 94 104 97 94 89 91 87 77 78 79 77 75 77 75 65 63 57 55
72 90 93 102 105 103 100 99 102 94 89 76 75 76 81 71 60 71 51 43 46 35
80 77 85 92 104 90 91 101 93 94 94 89 84 79 91 88 80 78 70 48 58 45
92 92 95 97 85 92 99 87 98 91 86 79 74 67 74 77 71 79 62 48 52 37
95 97 97 98 103 103 101 92 84 87 85 81 74 75 68 78 74 68 64 56 56 49
100 92 91 91 87 86 90 93 86 79 83 77 77 78 79 78 77 76 72 72 72 64
102 99 101 102 101 96 92 92 94 94 83 74 69 68 70 74 77 81 79 59 51 45
120 112 106 103 99 100 98 93 94 86 88 86 80 82 81 82 80 76 62 52 33 37
125 114 112 111 106 102 99 102 97 92 88 81 76 78 72 76 74 72 61 53 41 41
125 122 123 115 115 116 117 113 104 88 91 93 89 80 78 75 72 71 64 56 44 34
137 136 134 129 127 117 115 105 98 89 80 92 87 93 79 81 65 70 63 60 42 18
131 137 133 130 131 113 112 109 105 97 90 86 102 98 93 89 86 72 68 51 39 18
124 126 126 113 126 125 123 117 114 109 92 62 42 75 80 85 94 79 75 60 29 2